#timestamp,LO_Frequency,Hit,StdDev 
1656158415.2,286047000.3,N
1656158435.1,286046998.1,N
1656158436.0,286046998.1,N
1656158455.8,286047000.9,N
1656158475.6,286046999.8,N
1656158495.5,286047000.1,N
1656158515.3,286046999.7,N
1656158535.2,286046999.8,N
1656158555.9,286047002.5,N
1656158575.7,286046999.7,N
1656158595.6,286047000.3,N
1656158615.4,286047000.0,N
1656158635.2,286047000.0,N
1656158655.1,286046999.9,N
1656158656.0,286046999.9,N
1656158675.8,286047000.1,N
1656158695.7,286047002.2,N
1656158715.5,286047001.5,N
1656158735.3,286047001.6,N
1656158755.2,286047002.4,N
1656158775.0,286046999.8,N
1656158775.9,286046999.8,N
1656158795.7,286047001.5,N
1656158815.6,286047002.6,N
1656158835.4,286047001.5,N
1656158855.3,286047001.7,N
1656158875.1,286047002.4,N
1656158876.0,286047002.4,N
1656158895.8,286047002.6,N
1656158915.7,286046999.9,N
1656158935.5,286046999.7,N
1656158955.3,286047002.3,N
1656158975.2,286047002.0,N
1656158995.0,286047002.6,N
1656158995.9,286047002.6,N
1656159015.8,286047001.5,N
1656159035.6,286047001.9,N
1656159055.4,286047002.5,N
1656159075.3,286047002.4,N
1656159095.1,286047002.0,N
1656159115.8,286047001.7,N
1656159135.7,286047001.5,N
1656159155.5,286047001.8,N
1656159175.4,286047001.5,N
1656159195.2,286047002.1,N
1656159215.0,286047002.4,N
1656159215.9,286047002.4,N
1656159235.8,286047001.9,N
1656159255.6,286047000.0,N
1656159275.5,286046999.7,N
1656159295.3,286047002.2,N
1656159315.1,286047002.1,N
1656159335.9,286047002.5,N
1656159355.7,286047001.8,N
1656159375.5,286046999.8,N
1656159395.4,286047002.5,N
1656159415.2,286047001.5,N
1656159435.1,286047004.3,Y
1656159436.0,286047004.3,P
1656159455.8,286047000.8,N
1656159475.6,286047000.0,N
1656159495.5,286047000.0,N
1656159515.3,286047000.9,N
1656159535.2,286046998.1,N
1656159555.9,286046998.7,N
1656159575.7,286047001.2,N
1656159595.6,286047000.3,N
1656159615.4,286047000.8,N
1656159635.2,286047000.1,N
1656159655.1,286046999.9,N
1656159656.0,286046999.9,N
1656159675.8,286047000.2,N
1656159695.7,286047000.9,N
1656159715.5,286047001.1,N
1656159735.3,286046999.8,N
1656159755.2,286047002.8,N
1656159775.0,286047000.0,N
1656159775.9,286047000.0,N
1656159795.8,286047000.1,N
1656159815.6,286046999.7,N
1656159835.4,286046999.8,N
1656159855.3,286047002.4,N
1656159875.1,286046999.8,N
1656159895.8,286047000.4,N
1656159915.7,286046999.7,N
1656159935.5,286047002.7,N
1656159955.4,286047002.4,N
1656159975.2,286047002.7,N
1656159995.0,286047002.2,N
1656159995.9,286047002.2,N
1656160015.8,286047001.3,N
1656160035.6,286047004.2,Y
1656160055.5,286047002.2,P
1656160075.3,286047001.5,N
1656160095.1,286047004.3,P
1656160115.9,286047003.9,N
1656160135.7,286047003.9,N
1656160155.5,286047004.3,Y
1656160175.4,286046998.2,P
1656160195.2,286047002.5,N
1656160215.1,286047000.6,N
1656160216.0,286047000.6,N
1656160235.8,286047000.9,N
1656160255.6,286047000.6,N
1656160275.5,286047000.4,N
1656160295.3,286047000.6,N
1656160315.1,286046998.5,N
1656160335.9,286046999.1,N
1656160355.7,286046998.5,N
1656160375.6,286046999.6,N
1656160395.4,286046999.0,N
1656160415.2,286046998.7,N
1656160435.1,286046998.4,N
1656160436.0,286046998.4,N
1656160455.8,286046998.1,N
1656160475.6,286047001.2,N
1656160495.5,286047000.5,N
1656160515.3,286046998.2,N
1656160535.2,286046998.5,N
1656160555.9,286047001.0,N
1656160575.7,286047000.6,N
1656160595.6,286046998.5,N
1656160615.4,286047001.2,N
1656160635.2,286046998.5,N
1656160655.1,286046999.0,N
1656160656.0,286046999.0,N
1656160675.8,286046998.3,N
1656160695.7,286046998.9,N
1656160715.5,286046997.0,N
1656160735.3,286046996.7,N
1656160755.2,286046996.5,N
1656160775.0,286046996.9,N
1656160775.9,286046996.9,N
1656160795.8,286046999.3,N
1656160815.6,286046999.6,N
1656160835.4,286046998.7,N
1656160855.3,286046999.4,N
1656160875.1,286046999.0,N
1656160895.8,286046998.6,N
1656160915.7,286046998.7,N
1656160935.5,286047000.7,N
1656160955.4,286047001.2,N
1656160975.2,286046998.6,N
1656160995.0,286046998.4,N
1656160995.9,286046998.4,N
1656161015.8,286046999.3,N
1656161035.6,286046998.4,N
1656161055.4,286046998.9,N
1656161075.3,286046998.8,N
1656161095.1,286046996.9,N
1656161115.9,286046999.0,N
1656161135.7,286046998.6,N
1656161155.5,286046998.9,N
1656161175.4,286046998.5,N
1656161195.2,286046998.3,N
1656161215.0,286046999.3,N
1656161215.9,286046999.3,N
1656161235.8,286046999.0,N
1656161255.6,286046998.7,N
1656161275.5,286046998.6,N
1656161295.3,286046998.5,N
1656161315.1,286047000.5,N
1656161335.9,286047000.4,N
1656161355.7,286047002.4,N
1656161375.5,286047000.0,N
1656161395.4,286047002.6,N
1656161415.2,286046999.7,N
1656161435.1,286047000.0,N
1656161436.0,286047000.0,N
1656161455.8,286047000.1,N
1656161475.6,286047000.3,N
1656161495.5,286047000.5,N
1656161515.3,286046998.2,N
1656161535.2,286046998.5,N
1656161555.9,286046998.2,N
1656161575.7,286046998.8,N
1656161595.6,286046998.7,N
1656161615.4,286046998.4,N
1656161635.2,286046998.5,N
1656161655.1,286046998.2,N
1656161656.0,286046998.2,N
1656161675.8,286046998.6,N
1656161695.7,286046998.8,N
1656161715.5,286046998.5,N
1656161735.3,286047000.7,N
1656161755.2,286047001.2,N
1656161775.0,286046998.9,N
1656161775.9,286046998.9,N
1656161795.7,286046998.3,N
1656161815.6,286046999.3,N
1656161835.4,286046999.1,N
1656161855.3,286046996.6,N
1656161875.1,286046998.8,N
1656161876.0,286046998.8,N
1656161895.8,286046999.3,N
1656161915.7,286046998.9,N
1656161935.5,286046998.1,N
1656161955.4,286046998.3,N
1656161975.2,286046998.7,N
1656161995.0,286046998.2,N
1656161995.9,286046998.2,N
